FW8582 Weather Reports


time (UTC)temp
C
wind
direction
speed
KPH
gust
KPH
rain 1hr
cm
rain 24hr
cm
rain mn
cm
humidity
%
barometer
mb
20260507010052 12 0 3.2 17.7 0.03 0.25 0.25 99 1007.8
20260507004541 12 213 4.8 14.5 0.03 0.25 0.25 99 1007.8
20260507003039 12 236 3.2 14.5 0.03 0.25 0.25 99 1007.7
20260507001545 12 203 3.2 14.5 0.00 0.23 0.23 99 1007.6
20260507000045 12 124 3.2 11.3 0.00 0.23 0.23 99 1007.6
20260506234543 12 231 6.4 17.7 0.00 0.23 0.23 99 1007.6
20260506233046 11 203 8.0 20.9 0.00 0.23 0.23 99 1007.5
20260506231543 11 194 8.0 17.7 0.03 0.23 0.23 98 1007.5
20260506230038 12 235 6.4 16.1 0.03 0.23 0.23 98 1007.5
20260506224546 12 174 4.8 17.7 0.03 0.23 0.23 98 1007.5
20260506223043 12 195 3.2 16.1 0.05 0.23 0.23 98 1007.3
20260506221543 12 181 6.4 29.0 0.05 0.20 0.20 98 1007.3
20260506220044 12 178 3.2 17.7 0.08 0.20 0.20 97 1007.3
20260506214540 12 92 11.3 24.1 0.10 0.20 0.20 97 1007.5
20260506213102 12 218 6.4 24.1 0.08 0.18 0.18 97 1007.8
20260506211536 12 224 6.4 24.1 0.05 0.15 0.15 97 1007.8
20260506210045 12 214 4.8 19.3 0.03 0.13 0.13 97 1008.0
20260506204549 12 89 8.0 22.5 0.03 0.10 0.10 96 1008.1
20260506203043 12 198 8.0 24.1 0.03 0.10 0.10 96 1008.2
20260506201542 12 202 9.7 24.1 0.05 0.10 0.10 96 1008.4
20260506200048 12 174 6.4 27.4 0.08 0.10 0.10 96 1008.5
20260506194546 13 203 11.3 33.8 0.08 0.08 0.08 95 1008.7
20260506193046 13 261 6.4 24.1 0.08 0.08 0.08 95 1008.8
20260506191543 13 191 6.4 22.5 0.05 0.05 0.05 93 1009.0
20260506190044 13 155 4.8 20.9 0.00 0.00 0.00 91 1008.8
20260506184542 15 165 8.0 22.5 0.00 0.00 0.00 87 1009.0
20260506183039 15 258 6.4 24.1 0.00 0.00 0.00 84 1009.3
20260506181544 15 195 8.0 25.7 0.00 0.00 0.00 82 1009.3
20260506180055 16 152 8.0 22.5 0.00 0.00 0.00 81 1009.7
20260506174553 16 114 9.7 30.6 0.00 0.00 0.00 80 1009.6
20260506173044 17 209 12.9 33.8 0.00 0.00 0.00 78 1009.9
20260506171540 17 167 9.7 37.0 0.00 0.00 0.00 76 1010.1
20260506170050 18 252 11.3 25.7 0.00 0.00 0.00 74 1010.1
20260506164544 18 171 11.3 24.1 0.00 0.00 0.00 74 1010.2
20260506163104 18 208 11.3 24.1 0.00 0.00 0.00 75 1010.2
20260506161544 17 230 11.3 40.2 0.00 0.00 0.00 76 1010.6
20260506160043 18 197 9.7 43.5 0.00 0.00 0.00 74 1010.9
20260506154606 18 137 11.3 30.6 0.00 0.00 0.00 74 1011.0
20260506153054 19 171 9.7 32.2 0.00 0.00 0.00 71 1011.0
20260506151547 18 155 11.3 30.6 0.00 0.00 0.00 74 1010.9
20260506150044 18 158 14.5 37.0 0.00 0.00 0.00 75 1011.1
20260506144546 18 112 14.5 37.0 0.00 0.00 0.00 75 1011.4
20260506143051 18 311 9.7 27.4 0.00 0.00 0.00 76 1011.0
20260506141542 18 216 9.7 33.8 0.00 0.00 0.00 76 1011.2
20260506140036 17 212 9.7 20.9 0.00 0.00 0.00 77 1011.2
20260506134544 17 224 6.4 20.9 0.00 0.00 0.00 77 1010.9
20260506133044 17 196 4.8 33.8 0.00 0.00 0.00 79 1011.2
20260506131545 16 223 11.3 30.6 0.00 0.00 0.00 80 1011.6
20260506130044 16 139 9.7 29.0 0.00 0.00 0.00 81 1011.4
20260506124551 16 217 4.8 17.7 0.00 0.00 0.00 82 1011.5
20260506123036 15 198 12.9 35.4 0.00 0.00 0.00 84 1011.5
20260506121541 15 150 9.7 20.9 0.00 0.00 0.00 85 1011.4
20260506120055 14 188 3.2 19.3 0.00 0.00 0.00 88 1011.7
20260506114547 13 210 8.0 20.9 0.00 0.00 0.00 89 1011.8
20260506113042 13 287 3.2 17.7 0.00 0.00 0.00 90 1011.9
20260506111542 13 174 4.8 17.7 0.00 0.00 0.00 91 1011.9
20260506110055 13 200 4.8 20.9 0.00 0.00 0.00 92 1011.9
20260506104544 13 205 6.4 20.9 0.00 0.00 0.00 92 1011.9
20260506103044 13 175 3.2 19.3 0.00 0.00 0.00 92 1011.6
20260506101544 12 156 8.0 20.9 0.00 0.00 0.00 93 1011.6
20260506100045 12 219 6.4 20.9 0.00 0.00 0.00 93 1011.6
20260506094559 12 221 8.0 24.1 0.00 0.00 0.00 93 1011.5
20260506093052 12 208 9.7 22.5 0.00 0.00 0.00 93 1011.7
20260506091545 12 211 9.7 24.1 0.00 0.00 0.00 92 1011.7
20260506090043 12 245 6.4 25.7 0.00 0.00 0.00 92 1011.7
20260506084546 12 160 11.3 19.3 0.00 0.00 0.00 92 1011.9
20260506083040 13 195 4.8 22.5 0.00 0.00 0.00 91 1012.1
20260506081540 13 233 11.3 20.9 0.00 0.00 0.00 91 1012.1
20260506073047 13 153 8.0 20.9 0.00 0.00 0.00 90 1011.9
20260506071544 13 217 6.4 27.4 0.00 0.00 0.00 89 1012.0
20260506061545 13 272 9.7 25.7 0.00 0.00 0.00 88 1011.9
20260506044550 13 217 9.7 24.1 0.00 0.00 0.00 84 1012.4
20260506043044 13 264 3.2 27.4 0.00 0.00 0.00 83 1012.4
20260506041553 13 1 8.0 24.1 0.00 0.00 0.00 83 1012.5
20260506040100 13 235 6.4 22.5 0.00 0.00 0.00 82 1012.7
20260506034538 14 139 6.4 22.5 0.00 0.00 0.00 81 1012.4
20260506033045 14 189 6.4 17.7 0.00 0.00 0.00 80 1012.4
20260506031554 14 20 9.7 22.5 0.00 0.00 0.00 80 1012.3
20260506030042 14 61 11.3 22.5 0.00 0.00 0.00 79 1012.2
20260506024540 14 258 4.8 17.7 0.00 0.00 0.00 78 1012.3
20260506023040 15 248 11.3 32.2 0.00 0.00 0.00 77 1012.1
20260506021551 15 214 6.4 29.0 0.00 0.00 0.00 77 1012.2
20260506020044 15 179 9.7 27.4 0.00 0.00 0.00 77 1012.2
20260506014544 15 343 8.0 20.9 0.00 0.00 0.00 77 1012.1
20260506013045 14 140 8.0 20.9 0.00 0.00 0.00 76 1012.0
20260506011543 14 140 8.0 29.0 0.00 0.00 0.00 77 1012.0